CZ-6A DEB, 55891

Orbit data source: Space-Track

CZ-6A DEB, 55891 is space debris in SSO originally from a launch on Fri, 11 Nov 2022 UTC launched from the Taiyaun Space Center, China (TSC). Debris objects in space refer to the collection of defunct objects orbiting the Earth. Examples of debris include non-operational satellites, rocket bodies, and fragments generated from explosions, collisions, or faulty payload assembly.

Loading next visibility...
Identifier
55891, 2022-151AAP
Orbit
SSO
Country
Flag of CNCN / PRC
Related business
Manufacturer
SAST
Mission
Spacecraft
Bus & Motor
Unknown
Mass
Unknown
Launch date (UTC)
2022-11-11 (4 years ago)
Launch vehicle
Unknown
Launch site
Taiyaun Space Center, China (TSC)
Object type
Payload
Rocket body
Debris
Shape & HBR
Unknown shape, 0.1 m
Radar Cross Section
Small (<0.1 m²)

Expand to show TLE details & history
Last TLE update: 4 days ago

TLE from 4 days ago
0 CZ-6A DEB
1 55891U 22151AAP 26169.91267161  .00000362  00000-0  22992-3 0  9994
2 55891  98.8476 165.7625 0060612   2.2256 357.9173 14.09046122179681
Epoch: 2026-06-18T21:54Z
TLE epoch observation values (Epoch: 2026-06-18T21:54:14.827Z)
Latitude
0.00004°
Longitude
-69.94848°
Altitude
821.666 km
Speed
7.465 km/s
True Right ascension
11h 03m 02s
True Declination
0° 00' 00"
Sunlit
Object was in daylight at epoch
Visualization orbit readout
Latitude
Unknown
Longitude
Unknown
Altitude
Unknown
Speed
Unknown
Apparent Right ascension
Unknown
Apparent Declination
Unknown
Sunlit
N/A
Visualization observer readout
Local Sidereal Time
21:56:19
Azimuth
Unknown
Elevation
Unknown
Doppler factor
Unknown
Orbital elements
Apogee altitude
903.688 km
Perigee altitude
815.947 km
Semi-major axis
7,237.954 km
Eccentricity
0.00606
Inclination
98.8476°
RAAN
165.7625°
Arg. of periapsis
2.2256°
True anomaly
357.89187°
Mean anomaly
357.9173°
Eccentric anomaly
357.9046°
Mean motion
3.52468 °/min
Orbital period
102.14 mins
BSTAR
0.00022992
Loading maneuver chart data...
Computing Atmospheric mass density...
Loading historical data...
Loading historical data...
Loading historical data...
Loading historical data...
Loading historical data...
Loading historical data...
Loading historical data...

Documentation

Showing up to 5 results
|